Tracking 19575 objects as of 19-Feb-2019
HD Live streaming from Space Station
objects crossing your sky now

INSAT 2A

Track INSAT 2A now!
INSAT 2A is classified as:


NORAD ID: 22027
Int'l Code: 1992-041A
Perigee: 35,777.2 km
Apogee: 35,848.7 km
Inclination: 14.8 °
Period: 1,437.1 minutes
Semi major axis: 42183 km
RCS: 1.9952 m2 (large)
Launch date: July 9, 1992
Source: India (IND)
Launch site: FRENCH GUIANA (FRGUI)
aabbcc
Your satellite tracking list
Your tracking list is empty




NASA's NSSDC Master Catalog

Two Line Element Set (TLE):
1 22027U 92041A   19049.68695611 +.00000065 +00000-0 +00000-0 0  9995
2 22027 014.7827 014.0643 0008476 265.2784 307.7894 01.00203373097240
Source of the keplerian elements: AFSPC